星链-36549(STARLINK-36549)

导读

STARLINK-36549是由美国发射的星链卫星,于2026年1月18日发射升空,隶属于太空探索技术公司SpaceX打造的星链星座项目。星链项目旨在构建全球卫星互联网星座,为全球各地提供高速宽带互联网服务,这颗卫星将进一步扩充星链星座规模,推进全球网络覆盖目标落地。

Basic Information
目录编号:
67510
目录名称:
STARLINK-36549
国际标识:
2026-012T
轨道中心:
EARTH
卫星名称:
星链-36549
卫星全名:
星链-36549(STARLINK-36549)
卫星状态:
在轨 (已飞行229 天)
发射日期:
2026-01-18 UTC
国别 :
美国 (US)
星等 :
--
Orbit Information
数据来源 国际轨道数据
星历时间: 2026-09-04T04:19:51+0800
13小时前
查看轨道信息
半长轴: 6861.173km
偏心率: 0.0001528
轨道倾角: 43.004°
近地点辐角 277.318°
升交点赤经 27.813°
平近点角 82.749°
近地点: 481.987km
远地点: 484.085km
周期: 94.266分钟
每日圈数: 15.275844
Detailed Information
固有亮度:
5
最大亮度:
2.5
卫星平台:
Starlink V1.0
覆盖范围:
全球
运营商:
太空探索技术公司
运营商所在国:
美国
制造商(研发单位):
太空探索技术公司
制造商所在国:
美国
使用方式:
暂无
Satellite Introduction
Starlink 计划是 SpaceX 推出的全球卫星互联网项目,通过发射低轨道卫星,为全球尤其是偏远地区提供高速、低延迟的互联网服务。自 2019 年起,Starlink 已部署数千颗卫星,旨在缩小全球数字鸿沟,推动互联网普及。该项目还为军事、航空等行业提供通信支持,带来广泛经济效益。
2D Orbit Map
3D Orbit Map
Orbit Altitude Analysis Chart
Orbit Inclination Analysis Chart
Orbit Comprehensive Analysis Chart
View Comprehensive Chart
Conjunction Data List
Event ID Objects TCA Miss Dist (km) Collision Risk Probability Collision Risk Index (CRI) Action
CDM_260905-001806-368006-751021
2026-09-05T
00:18:53+0000
0.312 km
远距离
3.301779E-4 高风险 0.85
CDM_260905-133906-368006-751021
2026-09-05T
13:39:10+0000
0.937 km
远距离
1.890739E-5 中风险 0.61
CDM_260827-192406-379306-751021
2026-08-27T
19:24:55+0000
1.174 km
极远距离
9.980936E-6 低风险 0.55
CDM_260905-120506-368006-751021
2026-09-05T
12:05:01+0000
1.546 km
极远距离
3.492123E-6 低风险 0.46
CDM_260904-224406-368006-751021
2026-09-04T
22:44:44+0000
1.607 km
极远距离
3.095692E-6 低风险 0.45
CDM_260905-015306-368006-751021
2026-09-05T
01:53:02+0000
2.023 km
极远距离
1.657965E-6 低风险 0.39